FENGYUN 1C DEB

Satellite information

Favourite Embed

Satellite Type and Status

DEBRISIN ORBIT

Key statistics

Satellite FENGYUN 1C DEB at a glance.

Uptime

9715

Days in orbit

Revolutions

≈ 14.4

Per day

Orbit

SSO

Sun Synchronous Orbit

Inclination

98.9

Latest

Satellite identification and parameters

Extended collection of information and parameters for FENGYUN 1C DEB.

Object identification

Identified? True

Debris? True

Object name: FENGYUN 1C DEB

International designator: 1999-025CTE

Object number (NORAD): 32160

Object ID (CCSDS): 32160

Country: PEOPLES REPUBLIC OF CHINA (PRC)

Current information (Y/N): Y

RCS size: SMALL

Orbital parameters

Period: 100.17 minutes

Inclination: 98.881 deg

SMA: 7144.732 km

Apoapsis: 825.344 km

Periapsis: 707.85 km

RAAN: 139.7521 deg

Eccentricy: 0.00822242

Argument of periapsis: 10.7927 deg

Mean anomaly: 349.4999 deg

Mean motion: 14.37552839 rev/day

Mean motion (dot): 0.00002445 rev/day2

B* drag term: 0.0007997555 1/REarth

Two-line elements (TLE)

Creation date: Dec. 9, 2025, 5:08 a.m.

Reference frame: TEME

Reference center: EARTH

Epoch: Dec. 8, 2025, 5:12 p.m. UTC

TLE line 0: 0 FENGYUN 1C DEB

TLE line 1: 1 32160U 99025CTE 25342.71709852 .00002445 00000-0 79976-3 0 9998

TLE line 2: 2 32160 98.8810 139.7521 0082224 10.7927 349.4999 14.37552839958297

Live tracking on map

Real-time ground track for satellite FENGYUN 1C DEB.

In-orbit conjunctions

A list of the most updated potential collisions computed for object FENGYUN 1C DEB.

Target Orbit TCA Probability of collision Miss distance Type
IRS P4 (OCEANSAT 1) SSO 2025-06-19 23:43:17 0.0007673716 51.0 (m) PAYLOAD
CZ-6A DEB LEO 2025-02-19 20:53:33 0.0003662614 728.0 (m) DEBRIS

Associated space launch

Chinese polar orbiting meteorological satellite

FENGYUN 1C DEB was lifted into orbit during the mission ‘Long March 4B | Feng Yun 1C’, on board a Long March 4B space rocket.

The launch took place on May 10, 1999, 1:33 a.m. from Launch Complex 7.

For more information about the launch, click the button.

Launch to space Long March 4B | Feng Yun 1C
Long March 4B | Feng Yun 1C

Agency: N/A

Status: Launch Successful

Launch date: May 10, 1999, 1:33 a.m. UTC

Rocket: Long March 4B

Launch pad: Launch Complex 7

Location: Taiyuan Satellite Launch Center, People's Republic of China

...

Latest news about this satellite

There are no fresh news available about this satellite. Check back as we update our databases every day.


Newsletter sign-up

Weekly statistics, charts and insights to help you stay on top of the space industry.